Weather History for KGLR - March, 2013

Change the Weather History Date:

Monday, March 11, 2013

  Actual Average Record
Temperature  
Mean Temperature 38 °F -  
Max Temperature 46 °F 35 °F - (-1)
Min Temperature 32 °F 15 °F - (-1)
Degree Days  
Heating Degree Days 26    
Moisture  
Dew Point 38 °F    
Average Humidity 97    
Maximum Humidity 100    
Minimum Humidity 81    
Precipitation  
Precipitation 0.40 in - - ()
Sea Level Pressure  
Sea Level Pressure 29.55 in    
Wind  
Wind Speed 7 mph (SSE)    
Max Wind Speed 16 mph    
Max Gust Speed -    
Visibility 4 miles    
Events Fog , Rain , Snow    
Averages and records for this station are not official NWS values.
T = Trace of Precipitation, MM = Missing Value Source: NWS Daily Summary

Daily Weather History Graph

Daily Weather History Graph

Search for Another Location

Airport or City:

Trip Planner

Search our weather history database for the weather conditions in past years. The results will help you decide how hot, cold, wet, or windy it might be!

Date:

Astronomy

Mar. 11, 2013 Rise Set
Actual Time 7:58 AM EDT 7:39 PM EDT
Civil Twilight 7:28 AM EDT 8:09 PM EDT
Nautical Twilight 6:54 AM EDT 8:43 PM EDT
Astronomical Twilight 6:20 AM EDT 9:17 PM EDT
Moon 7:30 AM EDT (3/11) 7:53 PM EDT (3/11)
Length of Visible Light 12h 40m
Length of Day
11h 41m
Waning Crescent, 0% of the Moon is Illuminated
Mar 11
Waning Crescent
Mar 11
New
Mar 19
First Quarter
Mar 27
Full
Apr 3
Last Quarter

Hourly Weather History & Observations

Time (EDT) Temp. Windchill Dew Point Humidity Pressure Visibility Wind Dir Wind Speed Gust Speed Precip Events Conditions
12:53 AM 34.0 °F 29.8 °F 34.0 °F 100% 29.81 in 3.0 mi ENE 4.6 mph - 0.03 in Rain Light Rain
1:36 AM 33.8 °F 27.0 °F 33.8 °F 100% 29.73 in 1.8 mi ENE 8.1 mph - 0.01 in   Overcast
1:48 AM 33.8 °F 26.4 °F 33.8 °F 100% 29.72 in 0.5 mi ENE 9.2 mph - 0.01 in Fog Fog
1:53 AM 34.0 °F 26.6 °F 34.0 °F 100% 29.75 in 0.5 mi ENE 9.2 mph - 0.01 in Fog , Rain Light Rain
2:25 AM 33.8 °F 28.6 °F 33.8 °F 100% 29.71 in 1.5 mi Variable 5.8 mph - 0.00 in Rain Light Rain
2:32 AM 35.6 °F 31.7 °F 33.8 °F 93% 29.71 in 3.0 mi Variable 4.6 mph - 0.01 in Rain Light Rain
2:53 AM 35.1 °F 30.1 °F 35.1 °F 100% 29.72 in 3.0 mi East 5.8 mph - 0.04 in Rain Rain
3:53 AM 36.0 °F 31.1 °F 36.0 °F 100% 29.69 in 7.0 mi East 5.8 mph - 0.01 in   Overcast
4:53 AM 36.0 °F - 36.0 °F 100% 29.66 in 3.0 mi Calm Calm - 0.01 in   Overcast
5:17 AM 35.6 °F 32.8 °F 35.6 °F 100% 29.60 in 2.5 mi ESE 3.5 mph - N/A   Overcast
5:33 AM 35.6 °F 30.7 °F 35.6 °F 100% 29.60 in 3.0 mi ESE 5.8 mph - N/A   Overcast
6:53 AM 37.0 °F 30.4 °F 37.0 °F 100% 29.62 in 5.0 mi SSE 9.2 mph - N/A   Overcast
7:00 AM 37.4 °F 31.4 °F 37.4 °F 100% 29.58 in 4.0 mi SSE 8.1 mph - N/A   Overcast
7:53 AM 37.0 °F 32.4 °F 37.0 °F 100% 29.60 in 4.0 mi South 5.8 mph - N/A   Overcast
8:18 AM 37.4 °F 33.8 °F 37.4 °F 100% 29.58 in 4.0 mi South 4.6 mph - N/A   Overcast
8:31 AM 37.4 °F 32.8 °F 37.4 °F 100% 29.57 in 2.5 mi South 5.8 mph - N/A   Overcast
8:38 AM 39.2 °F 34.2 °F 37.4 °F 93% 29.58 in 0.8 mi SSW 6.9 mph - N/A   Overcast
8:50 AM 37.4 °F 31.4 °F 37.4 °F 100% 29.56 in 0.2 mi South 8.1 mph - N/A Fog Fog
8:53 AM 37.9 °F 33.5 °F 37.9 °F 100% 29.60 in 0.2 mi SSE 5.8 mph - N/A Fog Fog
9:53 AM 39.0 °F 33.4 °F 39.0 °F 100% 29.61 in 0.2 mi South 8.1 mph - N/A Fog Fog
10:09 AM 39.2 °F 35.0 °F 39.2 °F 100% 29.57 in 0.5 mi South 5.8 mph - N/A Fog Fog
10:38 AM 39.2 °F 33.6 °F 39.2 °F 100% 29.58 in 0.2 mi South 8.1 mph - N/A Fog Fog
10:53 AM 39.9 °F 35.1 °F 39.9 °F 100% 29.60 in 0.2 mi South 6.9 mph - N/A Fog Fog
11:14 AM 41.0 °F 36.4 °F 41.0 °F 100% 29.57 in 0.8 mi South 6.9 mph - N/A   Overcast
11:29 AM 42.8 °F 38.0 °F 42.8 °F 100% 29.57 in 2.0 mi SSW 8.1 mph - N/A   Overcast
11:37 AM 42.8 °F 37.5 °F 41.0 °F 93% 29.56 in 4.0 mi SSW 9.2 mph - N/A   Overcast
11:53 AM 42.1 °F 35.7 °F 41.0 °F 96% 29.59 in 2.5 mi SSW 11.5 mph - N/A   Overcast
12:05 PM 42.8 °F 38.0 °F 41.0 °F 93% 29.55 in 4.0 mi SSW 8.1 mph - N/A   Overcast
12:53 PM 41.0 °F 39.0 °F 41.0 °F 100% 29.57 in 7.0 mi South 3.5 mph - N/A   Overcast
1:39 PM 42.8 °F 40.1 °F 41.0 °F 93% 29.53 in 10.0 mi South 4.6 mph - N/A   Overcast
1:53 PM 42.1 °F 37.7 °F 41.0 °F 96% 29.57 in 10.0 mi South 6.9 mph - N/A   Overcast
2:53 PM 43.0 °F 37.7 °F 39.9 °F 89% 29.53 in 10.0 mi South 9.2 mph - 0.00 in Rain Light Rain
3:10 PM 44.6 °F 40.2 °F 41.0 °F 87% 29.48 in 10.0 mi South 8.1 mph - 0.00 in   Overcast
3:33 PM 44.6 °F 39.7 °F 39.2 °F 81% 29.48 in 10.0 mi South 9.2 mph - 0.00 in   Overcast
3:53 PM 44.1 °F 39.5 °F 39.9 °F 85% 29.49 in 10.0 mi South 8.1 mph - 0.00 in   Overcast
4:53 PM 45.0 °F 43.5 °F 39.9 °F 82% 29.46 in 10.0 mi ESE 3.5 mph - N/A   Overcast
5:53 PM 45.0 °F - 41.0 °F 86% 29.43 in 10.0 mi Calm Calm - N/A   Overcast
6:53 PM 42.1 °F 39.2 °F 41.0 °F 96% 29.42 in 3.0 mi SE 4.6 mph - 0.04 in Rain Light Rain
7:00 PM 42.8 °F 39.3 °F 42.8 °F 100% 29.40 in 3.0 mi ESE 5.8 mph - 0.01 in Rain Light Rain
7:13 PM 42.8 °F 41.1 °F 42.8 °F 100% 29.39 in 2.5 mi ESE 3.5 mph - 0.02 in Rain Light Rain
7:22 PM 42.8 °F 40.1 °F 42.8 °F 100% 29.39 in 1.8 mi ESE 4.6 mph - 0.02 in Rain Light Rain
7:34 PM 42.8 °F 40.1 °F 42.8 °F 100% 29.39 in 1.5 mi SE 4.6 mph - 0.03 in Rain Light Rain
7:53 PM 41.0 °F 38.0 °F 41.0 °F 100% 29.42 in 1.0 mi SE 4.6 mph - 0.04 in Rain Light Rain
8:02 PM 41.0 °F 38.0 °F 41.0 °F 100% 29.38 in 0.8 mi SE 4.6 mph - 0.01 in Rain Light Rain
8:36 PM 39.2 °F 35.9 °F 37.4 °F 93% 29.39 in 3.0 mi Variable 4.6 mph - 0.07 in Rain Rain
8:53 PM 36.0 °F 30.3 °F 35.1 °F 97% 29.42 in 3.0 mi West 6.9 mph - 0.13 in Rain Rain
9:53 PM 33.1 °F 24.9 °F 32.0 °F 96% 29.44 in 7.0 mi West 10.4 mph - 0.08 in Snow Light Snow
10:38 PM 32.0 °F 22.5 °F 32.0 °F 100% 29.42 in 7.0 mi West 12.7 mph - 0.00 in Snow Light Snow
10:53 PM 32.0 °F 21.2 °F 30.9 °F 96% 29.46 in 8.0 mi WSW 16.1 mph - 0.00 in   Overcast
11:29 PM 32.0 °F 21.6 °F 30.2 °F 93% 29.44 in 2.0 mi WSW 15.0 mph - 0.00 in Snow Light Snow
11:51 PM 32.0 °F 22.1 °F 30.2 °F 93% 29.45 in 1.5 mi WSW 13.8 mph - 0.01 in Snow Light Snow
11:53 PM 32.0 °F 22.5 °F 30.0 °F 92% 29.49 in 1.5 mi WSW 12.7 mph - 0.01 in Snow Light Snow